This is the latest recevied weather packets stored in our database for station/object VR2MW-X. If no packets are shown the sender has not sent any weather packets the latest 10 day(s).
| Time | Temp. | Humidity | Pressure | Rain* | Wind** | Luminosity | Snow |
|---|---|---|---|---|---|---|---|
| 1778225498 | 28.89° C | 76% | 1011.1 hPa | - | - | - | - |
| 1778224887 | 28.89° C | 76% | 1011.1 hPa | - | - | - | - |
| 1778224275 | 27.78° C | 79% | 1011.1 hPa | - | - | - | - |
| 1778223665 | 27.78° C | 80% | 1011.2 hPa | - | - | - | - |
| 1778223054 | 28.89° C | 78% | 1011.3 hPa | - | - | - | - |
| 1778221832 | 28.89° C | 75% | 1011.6 hPa | - | - | - | - |
| 1778221222 | 28.89° C | 74% | 1011.6 hPa | - | - | - | - |
| 1778220611 | 28.89° C | 74% | 1011.6 hPa | - | - | - | - |
| 1778220000 | 28.89° C | 75% | 1011.6 hPa | - | - | - | - |
| 1778219389 | 27.78° C | 76% | 1011.6 hPa | - | - | - | - |
| 1778218779 | 27.78° C | 77% | 1011.7 hPa | - | - | - | - |
| 1778218168 | 27.78° C | 79% | 1011.8 hPa | - | - | - | - |
| 1778217557 | 27.78° C | 76% | 1012 hPa | - | - | - | - |
| 1778216947 | 28.89° C | 74% | 1012 hPa | - | - | - | - |
| 1778216336 | 28.89° C | 74% | 1012.1 hPa | - | - | - | - |
| 1778215726 | 28.89° C | 72% | 1012.1 hPa | - | - | - | - |
| 1778215115 | 30° C | 70% | 1012.2 hPa | - | - | - | - |
| 1778214504 | 30° C | 70% | 1012.5 hPa | - | - | - | - |
| 1778213894 | 30° C | 67% | 1012.5 hPa | - | - | - | - |
| 1778213283 | 30° C | 71% | 1012.5 hPa | - | - | - | - |
| 1778212672 | 30° C | 69% | 1012.6 hPa | - | - | - | - |
| 1778212062 | 28.89° C | 71% | 1012.7 hPa | - | - | - | - |
| 1778211451 | 28.89° C | 69% | 1012.8 hPa | - | - | - | - |
| 1778210230 | 27.78° C | 76% | 1013.3 hPa | - | - | - | - |
| 1778209620 | 27.78° C | 78% | 1013.5 hPa | - | - | - | - |
* Rain since midnight (hover to see other rain measurements)
** Current wind speed in m/s (hover to see current wind gust speed)